Regional Weather Roundup
Issued by NWS Mt. Holly, NJ

Home | Current Version | Previous Version | Text Only | Print | Product List | Glossary On
Versions: 1 2 3 4 5 6 7 8 9 10 11 12 13 14 15 16 17 18 19 20 21 22 23 24 25 26 27 28 29 30 31 32 33 34 35 36 37 38 39 40 41 42 43 44 45 46 47 48 49 50
000
ASUS41 KPHI 220610
RWRPHI

REGIONAL WEATHER ROUNDUP
NATIONAL WEATHER SERVICE MOUNT HOLLY NJ
200 AM EDT FRI AUG 22 2014

NOTE:  "FAIR" INDICATES FEW OR NO CLOUDS BELOW 12,000 FEET WITH NO
SIGNIFICANT WEATHER AND/OR OBSTRUCTIONS TO VISIBILITY.

 * = STATION DOES NOT REPORT PRECIPITATION (E.G. RAIN, SNOW, ETC.)
        OR FOG.

NJZ015>026-220700-
SOUTHERN NEW JERSEY

CITY           SKY/WX    TMP DP  RH WIND       PRES   REMARKS
POMONA         CLOUDY    73  69  87 S6        29.97F
6HR MIN TEMP:  71; 6HR MAX TEMP:  74; 6HR PCP:  0.01;

RIO GRANDE*    MOCLDY    72  66  83 S12       29.98F THUNDER
MILLVILLE      MOCLDY    68  66  93 CALM      29.97F
WRIGHTSTOWN    LGT RAIN  66  66 100 SE10      29.97S
MOUNT HOLLY    LGT RAIN  68  66  93 NE6       30.00S
TRENTON        TSTM      67  65  93 E9        30.01S FOG
6HR MIN TEMP:  67; 6HR MAX TEMP:  73; 6HR PCP:  1.44;


$$
NJZ001>014-220700-
NORTHERN NEW JERSEY

CITY           SKY/WX    TMP DP  RH WIND       PRES   REMARKS
SUSSEX         FAIR      67  64  90 CALM        N/A  FOG
ANDOVER*         N/A     65  64  97 CALM      30.02R
MORRISTOWN     RAIN      68  64  88 CALM      30.03R
NEWARK         LGT RAIN  67  64  90 CALM      30.03R
TETERBORO      LGT RAIN  68  62  81 CALM      30.01R
CALDWELL       MOCLDY    66  63  90 CALM      30.03S
SOMERVILLE     LGT RAIN  66  64  93 N3        29.99S
ALLAIRE*       MOCLDY    66  61  82 SE5       30.03F
TOMS RIVER*    CLOUDY    70  66  88 N16       30.01R

$$
PAZ043-044-047-054-055-060>062-066>071-220700-
EASTERN PENNSYLVANIA

CITY           SKY/WX    TMP DP  RH WIND       PRES   REMARKS
PHILADELPHIA   CLOUDY    73  68  84 NE6       29.98F
6HR MIN TEMP:  73; 6HR MAX TEMP:  77;

NORTH PHILA    CLOUDY    70  65  84 E12       30.01F
BLUE BELL      CLOUDY    70  66  88 NE9       29.99F
DOYLESTOWN     LGT RAIN  66  66 100 CALM      30.00F
QUAKERTOWN*    CLOUDY    66  66 100 MISG      30.02F
POTTSTOWN      LGT RAIN  68  65  90 E5        30.01S
LANCASTER      FAIR      69  68  96 CALM      29.99S FOG
COATESVILLE    FOG       72  72 100 CALM      30.00F VSB 1/2
READING        LGT RAIN  73  70  90 N3        29.98S
6HR MIN TEMP:  73; 6HR MAX TEMP:  78; 6HR PCP: TRACE;

ALLENTOWN      LGT RAIN  68  65  90 E5        30.01F
6HR MIN TEMP:  67; 6HR MAX TEMP:  79; 6HR PCP:  0.49;

MOUNT POCONO   HVY RAIN  63  61  93 CALM      30.06R FOG
6HR MIN TEMP:  63; 6HR MAX TEMP:  71; 6HR PCP:  0.54;

HAZLETON       RAIN      68  66  94 SE5       30.06F
WILKES BARRE   LGT RAIN  70  66  88 CALM      30.00F

$$
DEZALL-MDZ008-012-015-019-020-220700-
DELAWARE AND EASTERN MARYLAND

CITY           SKY/WX    TMP DP  RH WIND       PRES   REMARKS
WILMINGTON     CLOUDY    74  71  91 S3        29.97F
6HR MIN TEMP:  74; 6HR MAX TEMP:  76; 6HR PCP:  0.01;

DOVER          MOCLDY    72  72 100 SE2       29.95F
GEORGETOWN     CLOUDY    75  72  90 S10       29.96F
6HR MIN TEMP:  74; 6HR MAX TEMP:  75; 6HR PCP: TRACE;

EASTON         LGT RAIN  75  75 100 CALM      30.00S
OCEAN CITY     CLOUDY    77  75  93 S5        29.96F
WALLOPS ISLAND FAIR      76  74  93 S7        29.96F
CAMBRIDGE      CLOUDY    77  73  88 SE3       29.94F
SALISBURY      CLOUDY    76  72  87 CALM      29.96F

$$
PAZ001-021-NYZ056-072-MDZ011-DCZ001-220700-
OTHER NEARBY LOCATIONS

CITY           SKY/WX    TMP DP  RH WIND       PRES   REMARKS
HARRISBURG     FAIR      69  66  90 N3        29.98S FOG
STATE COLLEGE  CLOUDY    66  65  97 SW5       30.02F FOG
WILLIAMSPORT   FAIR      67  65  93 NW3       29.98S
BINGHAMTON     FAIR      62  61  96 CALM      30.01S
NEW YORK CITY  LGT RAIN  67  65  93 CALM      30.05S FOG
BALTIMORE      FAIR      71  68  90 CALM      29.97S
WASHINGTON DC  MOCLDY    77  67  71 NW5       29.99R

$$



USA.gov is the U.S. government's official web portal to all federal, state and local government web resources and services.